This is the latest recevied weather packets stored in our database for station/object E25XKG-15. If no packets are shown the sender has not sent any weather packets the latest 10 day(s).
| Time | Temp. | Humidity | Pressure | Rain* | Wind** | Luminosity | Snow |
|---|---|---|---|---|---|---|---|
| 1777508728 | 33.33° C | 46% | 1005.3 hPa | - | - | - | - |
| 1777508427 | 33.33° C | 46% | 1005.2 hPa | - | - | - | - |
| 1777508126 | 33.33° C | 46% | 1005.1 hPa | - | - | - | - |
| 1777507825 | 33.33° C | 46% | 1005.2 hPa | - | - | - | - |
| 1777507524 | 33.33° C | 47% | 1005.2 hPa | - | - | - | - |
| 1777507224 | 33.33° C | 47% | 1005 hPa | - | - | - | - |
| 1777506923 | 33.33° C | 47% | 1004.8 hPa | - | - | - | - |
| 1777506622 | 33.33° C | 47% | 1004.7 hPa | - | - | - | - |
| 1777506321 | 33.33° C | 48% | 1004.6 hPa | - | - | - | - |
| 1777506020 | 33.33° C | 48% | 1004.6 hPa | - | - | - | - |
| 1777505719 | 33.33° C | 49% | 1004.5 hPa | - | - | - | - |
| 1777505418 | 33.33° C | 51% | 1004.5 hPa | - | - | - | - |
| 1777505117 | 33.33° C | 50% | 1004.4 hPa | - | - | - | - |
| 1777504816 | 33.33° C | 51% | 1004.2 hPa | - | - | - | - |
| 1777504515 | 33.33° C | 55% | 1004.2 hPa | - | - | - | - |
| 1777504214 | 33.33° C | 54% | 1003.6 hPa | - | - | - | - |
| 1777503913 | 33.33° C | 53% | 1003.7 hPa | - | - | - | - |
| 1777503613 | 33.33° C | 50% | 1003.7 hPa | - | - | - | - |
| 1777503312 | 33.33° C | 50% | 1003.2 hPa | - | - | - | - |
| 1777503011 | 33.33° C | 50% | 1003.3 hPa | - | - | - | - |
| 1777502710 | 33.33° C | 48% | 1003.2 hPa | - | - | - | - |
| 1777502409 | 33.33° C | 50% | 1003.2 hPa | - | - | - | - |
| 1777502108 | 33.33° C | 49% | 1002.8 hPa | - | - | - | - |
| 1777501807 | 33.33° C | 49% | 1003.1 hPa | - | - | - | - |
| 1777501506 | 33.33° C | 50% | 1003 hPa | - | - | - | - |
* Rain since midnight (hover to see other rain measurements)
** Current wind speed in m/s (hover to see current wind gust speed)